Time,TemperatureF,DewpointF,PressureIn,WindDirection,WindDirectionDegrees,WindSpeedMPH,WindSpeedGustMPH,Humidity,HourlyPrecipIn,Conditions,Clouds,dailyrainin,SoftwareType,DateUTC
2013-02-22 00:10:00,40.5,34.0,30.17,SW,224,0.0,0.0,76,0.00,,,0.00,weatherlink.com 1.10,2013-02-22 08:10:00,
2013-02-22 00:25:00,40.2,33.0,30.17,SW,224,0.0,0.0,76,0.00,,,0.00,weatherlink.com 1.10,2013-02-22 08:25:00,
2013-02-22 00:40:00,40.1,33.0,30.17,SW,224,0.0,0.0,76,0.00,,,0.00,weatherlink.com 1.10,2013-02-22 08:40:00,
2013-02-22 00:56:00,40.3,34.0,30.18,SSE,160,0.0,0.0,77,0.00,,,0.00,weatherlink.com 1.10,2013-02-22 08:56:00,
2013-02-22 01:10:00,40.0,33.0,30.18,SSE,162,0.0,0.0,77,0.00,,,0.00,weatherlink.com 1.10,2013-02-22 09:10:00,
2013-02-22 01:25:00,39.6,33.0,30.18,SE,145,0.0,0.0,78,0.00,,,0.00,weatherlink.com 1.10,2013-02-22 09:25:00,
2013-02-22 01:40:00,39.4,33.0,30.18,SE,145,0.0,0.0,79,0.00,,,0.00,weatherlink.com 1.10,2013-02-22 09:40:00,
2013-02-22 01:55:00,39.2,33.0,30.16,SSE,165,0.0,0.0,79,0.00,,,0.00,weatherlink.com 1.10,2013-02-22 09:55:00,
2013-02-22 02:11:00,39.1,33.0,30.17,SW,235,0.0,0.0,79,0.00,,,0.00,weatherlink.com 1.10,2013-02-22 10:11:00,
2013-02-22 02:25:00,39.4,33.0,30.18,SSW,212,0.0,0.0,78,0.00,,,0.00,weatherlink.com 1.10,2013-02-22 10:25:00,
2013-02-22 02:40:00,38.9,33.0,30.18,West,263,0.0,0.0,80,0.00,,,0.00,weatherlink.com 1.10,2013-02-22 10:40:00,
2013-02-22 02:55:00,38.6,33.0,30.18,SSE,150,0.0,2.0,81,0.00,,,0.00,weatherlink.com 1.10,2013-02-22 10:55:00,
2013-02-22 03:10:00,37.9,33.0,30.18,SSE,151,0.0,1.0,83,0.00,,,0.00,weatherlink.com 1.10,2013-02-22 11:10:00,
2013-02-22 03:25:00,37.3,33.0,30.17,SE,141,0.0,0.0,83,0.00,,,0.00,weatherlink.com 1.10,2013-02-22 11:25:00,
2013-02-22 03:41:00,37.0,33.0,30.17,SW,218,0.0,0.0,84,0.00,,,0.00,weatherlink.com 1.10,2013-02-22 11:41:00,
2013-02-22 03:56:00,37.4,33.0,30.17,SW,218,0.0,0.0,83,0.00,,,0.00,weatherlink.com 1.10,2013-02-22 11:56:00,
2013-02-22 04:11:00,37.7,33.0,30.17,West,270,0.0,0.0,82,0.00,,,0.00,weatherlink.com 1.10,2013-02-22 12:11:00,
2013-02-22 04:26:00,37.7,32.0,30.18,SSW,193,0.0,0.0,81,0.00,,,0.00,weatherlink.com 1.10,2013-02-22 12:26:00,
2013-02-22 04:41:00,37.4,32.0,30.18,SSW,193,0.0,0.0,81,0.00,,,0.00,weatherlink.com 1.10,2013-02-22 12:41:00,
2013-02-22 04:56:00,37.5,33.0,30.19,SSE,155,1.0,2.0,83,0.00,,,0.00,weatherlink.com 1.10,2013-02-22 12:56:00,
2013-02-22 05:11:00,37.9,33.0,30.20,SSE,162,0.0,2.0,83,0.00,,,0.00,weatherlink.com 1.10,2013-02-22 13:11:00,
2013-02-22 05:26:00,38.3,33.0,30.20,South,172,0.0,3.0,82,0.00,,,0.00,weatherlink.com 1.10,2013-02-22 13:26:00,
2013-02-22 05:41:00,37.5,33.0,30.19,SW,224,0.0,1.0,83,0.00,,,0.00,weatherlink.com 1.10,2013-02-22 13:41:00,
2013-02-22 05:56:00,37.2,32.0,30.20,SSW,198,0.0,0.0,82,0.00,,,0.00,weatherlink.com 1.10,2013-02-22 13:56:00,
2013-02-22 06:11:00,37.1,32.0,30.20,WSW,238,0.0,0.0,82,0.00,,,0.00,weatherlink.com 1.10,2013-02-22 14:11:00,
2013-02-22 06:26:00,36.1,32.0,30.20,WSW,238,0.0,0.0,84,0.00,,,0.00,weatherlink.com 1.10,2013-02-22 14:26:00,
2013-02-22 06:41:00,35.9,32.0,30.20,WSW,238,0.0,0.0,84,0.00,,,0.00,weatherlink.com 1.10,2013-02-22 14:41:00,
2013-02-22 06:56:00,36.5,32.0,30.20,WSW,238,0.0,0.0,83,0.00,,,0.00,weatherlink.com 1.10,2013-02-22 14:56:00,
2013-02-22 07:11:00,38.0,32.0,30.20,SE,143,0.0,0.0,80,0.00,,,0.00,weatherlink.com 1.10,2013-02-22 15:11:00,
2013-02-22 07:26:00,40.4,33.0,30.21,SSE,152,0.0,0.0,76,0.00,,,0.00,weatherlink.com 1.10,2013-02-22 15:26:00,
2013-02-22 07:41:00,41.1,34.0,30.21,SSE,165,1.0,1.0,75,0.00,,,0.00,weatherlink.com 1.10,2013-02-22 15:41:00,
2013-02-22 07:56:00,42.1,34.0,30.22,South,183,0.0,1.0,73,0.00,,,0.00,weatherlink.com 1.10,2013-02-22 15:56:00,
2013-02-22 08:11:00,42.7,34.0,30.22,SE,128,0.0,1.0,72,0.00,,,0.00,weatherlink.com 1.10,2013-02-22 16:11:00,
2013-02-22 08:26:00,44.1,34.0,30.22,SE,132,0.0,3.0,69,0.00,,,0.00,weatherlink.com 1.10,2013-02-22 16:26:00,
2013-02-22 08:41:00,47.1,35.0,30.23,ESE,120,0.0,3.0,62,0.00,,,0.00,weatherlink.com 1.10,2013-02-22 16:41:00,
2013-02-22 08:56:00,49.4,35.0,30.23,ESE,122,0.0,0.0,57,0.00,,,0.00,weatherlink.com 1.10,2013-02-22 16:56:00,
2013-02-22 09:11:00,51.2,36.0,30.23,ESE,110,0.0,2.0,57,0.00,,,0.00,weatherlink.com 1.10,2013-02-22 17:11:00,
2013-02-22 09:26:00,52.0,35.0,30.23,NE,36,2.0,3.0,53,0.00,,,0.00,weatherlink.com 1.10,2013-02-22 17:26:00,
2013-02-22 09:42:00,52.0,35.0,30.23,WNW,300,2.0,4.0,53,0.00,,,0.00,weatherlink.com 1.10,2013-02-22 17:42:00,
2013-02-22 09:56:00,54.3,33.0,30.23,NNW,340,2.0,3.0,45,0.00,,,0.00,weatherlink.com 1.10,2013-02-22 17:56:00,
2013-02-22 10:12:00,54.4,33.0,30.23,NNE,30,2.0,4.0,44,0.00,,,0.00,weatherlink.com 1.10,2013-02-22 18:12:00,
2013-02-22 10:27:00,54.9,33.0,30.23,SE,145,1.0,2.0,43,0.00,,,0.00,weatherlink.com 1.10,2013-02-22 18:27:00,
2013-02-22 10:42:00,56.2,34.0,30.23,South,173,1.0,3.0,44,0.00,,,0.00,weatherlink.com 1.10,2013-02-22 18:42:00,
2013-02-22 10:57:00,57.9,35.0,30.23,SW,217,0.0,2.0,43,0.00,,,0.00,weatherlink.com 1.10,2013-02-22 18:57:00,
2013-02-22 11:12:00,58.1,34.0,30.23,ESE,117,1.0,3.0,40,0.00,,,0.00,weatherlink.com 1.10,2013-02-22 19:12:00,
2013-02-22 11:27:00,58.8,34.0,30.23,NE,53,2.0,5.0,39,0.00,,,0.00,weatherlink.com 1.10,2013-02-22 19:27:00,
2013-02-22 11:44:00,59.7,35.0,30.23,SW,234,0.0,4.0,40,0.00,,,0.00,weatherlink.com 1.10,2013-02-22 19:44:00,
2013-02-22 11:57:00,59.6,34.0,30.23,SSE,155,1.0,5.0,39,0.00,,,0.00,weatherlink.com 1.10,2013-02-22 19:57:00,
2013-02-22 12:12:00,59.6,34.0,30.22,ENE,71,2.0,5.0,39,0.00,,,0.00,weatherlink.com 1.10,2013-02-22 20:12:00,
2013-02-22 12:29:00,60.5,35.0,30.21,NW,319,2.0,4.0,38,0.00,,,0.00,weatherlink.com 1.10,2013-02-22 20:29:00,
2013-02-22 12:42:00,61.5,34.0,30.20,ENE,76,2.0,4.0,36,0.00,,,0.00,weatherlink.com 1.10,2013-02-22 20:42:00,
2013-02-22 12:57:00,61.1,34.0,30.20,East,98,4.0,6.0,36,0.00,,,0.00,weatherlink.com 1.10,2013-02-22 20:57:00,
2013-02-22 13:12:00,61.3,35.0,30.19,ESE,106,1.0,6.0,37,0.00,,,0.00,weatherlink.com 1.10,2013-02-22 21:12:00,
2013-02-22 13:27:00,62.1,35.0,30.18,South,172,3.0,5.0,36,0.00,,,0.00,weatherlink.com 1.10,2013-02-22 21:27:00,
2013-02-22 13:42:00,61.7,35.0,30.17,East,98,5.0,9.0,37,0.00,,,0.00,weatherlink.com 1.10,2013-02-22 21:42:00,
2013-02-22 13:57:00,62.4,35.0,30.17,NNE,30,0.0,5.0,36,0.00,,,0.00,weatherlink.com 1.10,2013-02-22 21:57:00,
2013-02-22 14:12:00,63.3,34.0,30.17,NNE,26,4.0,6.0,33,0.00,,,0.00,weatherlink.com 1.10,2013-02-22 22:12:00,
2013-02-22 14:27:00,63.9,34.0,30.16,NNE,26,3.0,10.0,33,0.00,,,0.00,weatherlink.com 1.10,2013-02-22 22:27:00,
2013-02-22 14:42:00,63.6,35.0,30.16,NE,56,1.0,4.0,34,0.00,,,0.00,weatherlink.com 1.10,2013-02-22 22:42:00,
2013-02-22 14:57:00,62.8,35.0,30.16,SW,214,2.0,6.0,35,0.00,,,0.00,weatherlink.com 1.10,2013-02-22 22:57:00,
2013-02-22 15:12:00,61.7,35.0,30.16,ENE,73,1.0,6.0,37,0.00,,,0.00,weatherlink.com 1.10,2013-02-22 23:12:00,
2013-02-22 15:27:00,61.4,36.0,30.17,West,259,1.0,8.0,39,0.00,,,0.00,weatherlink.com 1.10,2013-02-22 23:27:00,
2013-02-22 15:42:00,60.6,36.0,30.17,ESE,115,2.0,7.0,40,0.00,,,0.00,weatherlink.com 1.10,2013-02-22 23:42:00,
2013-02-22 15:57:00,60.0,37.0,30.17,ESE,108,1.0,5.0,42,0.00,,,0.00,weatherlink.com 1.10,2013-02-22 23:57:00,
2013-02-22 16:12:00,59.1,37.0,30.17,East,96,4.0,4.0,44,0.00,,,0.00,weatherlink.com 1.10,2013-02-23 00:12:00,
2013-02-22 16:28:00,58.3,37.0,30.16,North,356,0.0,6.0,45,0.00,,,0.00,weatherlink.com 1.10,2013-02-23 00:28:00,
2013-02-22 16:42:00,57.6,37.0,30.16,NNE,19,0.0,5.0,47,0.00,,,0.00,weatherlink.com 1.10,2013-02-23 00:42:00,
2013-02-22 16:57:00,56.8,38.0,30.15,North,10,0.0,1.0,49,0.00,,,0.00,weatherlink.com 1.10,2013-02-23 00:57:00,
2013-02-22 17:12:00,55.5,38.0,30.16,ENE,68,0.0,1.0,52,0.00,,,0.00,weatherlink.com 1.10,2013-02-23 01:12:00,
2013-02-22 17:27:00,54.1,37.0,30.16,ENE,68,0.0,1.0,53,0.00,,,0.00,weatherlink.com 1.10,2013-02-23 01:27:00,
2013-02-22 17:42:00,52.7,37.0,30.15,West,281,0.0,1.0,55,0.00,,,0.00,weatherlink.com 1.10,2013-02-23 01:42:00,
2013-02-22 17:57:00,51.5,36.0,30.15,West,276,0.0,0.0,55,0.00,,,0.00,weatherlink.com 1.10,2013-02-23 01:57:00,
2013-02-22 18:12:00,51.0,35.0,30.16,West,276,0.0,0.0,55,0.00,,,0.00,weatherlink.com 1.10,2013-02-23 02:12:00,
2013-02-22 18:28:00,50.5,36.0,30.16,West,262,0.0,0.0,57,0.00,,,0.00,weatherlink.com 1.10,2013-02-23 02:28:00,
2013-02-22 18:42:00,49.8,35.0,30.17,SSW,198,0.0,0.0,57,0.00,,,0.00,weatherlink.com 1.10,2013-02-23 02:42:00,
2013-02-22 18:57:00,49.5,36.0,30.17,SE,131,1.0,1.0,59,0.00,,,0.00,weatherlink.com 1.10,2013-02-23 02:57:00,
2013-02-22 19:12:00,49.5,36.0,30.17,NW,311,0.0,3.0,61,0.00,,,0.00,weatherlink.com 1.10,2013-02-23 03:12:00,
2013-02-22 19:27:00,49.7,37.0,30.17,NNE,32,3.0,5.0,63,0.00,,,0.00,weatherlink.com 1.10,2013-02-23 03:27:00,
2013-02-22 19:42:00,49.4,37.0,30.16,NNE,30,2.0,3.0,63,0.00,,,0.00,weatherlink.com 1.10,2013-02-23 03:42:00,
2013-02-22 19:57:00,49.0,37.0,30.16,ENE,71,0.0,2.0,63,0.00,,,0.00,weatherlink.com 1.10,2013-02-23 03:57:00,
2013-02-22 20:12:00,48.0,37.0,30.16,East,99,0.0,2.0,66,0.00,,,0.00,weatherlink.com 1.10,2013-02-23 04:12:00,
2013-02-22 20:28:00,47.2,37.0,30.18,SE,127,0.0,2.0,68,0.00,,,0.00,weatherlink.com 1.10,2013-02-23 04:28:00,
2013-02-22 20:42:00,46.9,37.0,30.17,ESE,115,2.0,2.0,69,0.00,,,0.00,weatherlink.com 1.10,2013-02-23 04:42:00,
2013-02-22 20:57:00,46.3,37.0,30.17,SW,219,0.0,1.0,70,0.00,,,0.00,weatherlink.com 1.10,2013-02-23 04:57:00,
2013-02-22 21:13:00,45.6,37.0,30.18,WSW,256,0.0,1.0,71,0.00,,,0.00,weatherlink.com 1.10,2013-02-23 05:13:00,
2013-02-22 21:28:00,45.0,37.0,30.18,SSW,212,2.0,3.0,73,0.00,,,0.00,weatherlink.com 1.10,2013-02-23 05:28:00,
2013-02-22 21:43:00,45.7,37.0,30.18,SW,232,0.0,2.0,72,0.00,,,0.00,weatherlink.com 1.10,2013-02-23 05:43:00,
2013-02-22 21:58:00,46.9,38.0,30.18,NE,46,3.0,7.0,70,0.00,,,0.00,weatherlink.com 1.10,2013-02-23 05:58:00,
2013-02-22 22:13:00,46.8,36.0,30.18,NNE,13,3.0,6.0,67,0.00,,,0.00,weatherlink.com 1.10,2013-02-23 06:13:00,
2013-02-22 22:28:00,46.0,36.0,30.18,SE,127,0.0,7.0,69,0.00,,,0.00,weatherlink.com 1.10,2013-02-23 06:28:00,
2013-02-22 22:43:00,45.3,36.0,30.18,North,349,3.0,6.0,70,0.00,,,0.00,weatherlink.com 1.10,2013-02-23 06:43:00,
2013-02-22 22:58:00,44.9,36.0,30.18,NNW,343,1.0,5.0,72,0.00,,,0.00,weatherlink.com 1.10,2013-02-23 06:58:00,
2013-02-22 23:13:00,44.6,37.0,30.18,NNE,15,0.0,5.0,75,0.00,,,0.00,weatherlink.com 1.10,2013-02-23 07:13:00,
2013-02-22 23:28:00,44.3,37.0,30.17,NNW,347,2.0,5.0,76,0.00,,,0.00,weatherlink.com 1.10,2013-02-23 07:28:00,
2013-02-22 23:43:00,43.9,37.0,30.16,ESE,103,0.0,3.0,78,0.00,,,0.00,weatherlink.com 1.10,2013-02-23 07:43:00,
2013-02-22 23:58:00,43.0,37.0,30.16,NNW,343,1.0,2.0,80,0.00,,,0.00,weatherlink.com 1.10,2013-02-23 07:58:00,